Retour au catalogue

STARLINK-32779

ActifCommunicationsVLEO
NORAD 63030·PAYLOAD·🇺🇸 United States

Lancé Feb 18, 2025 depuis Cape Canaveral Space Force Station

Loading…

Prochains Passages (prochaines 24 heures)

TLE

FraisSource: CelesTrak SupGP

Époque: Sep 15, 2026, 02:25 UTC

1 63030C 25034B   26258.10118056  .00026184  00000+0  77365-3 0  2580
2 63030  53.1572 108.6321 0001245  82.0108 203.8302 15.34376078    12

Suivez STARLINK-32779 en temps réel avec AllMySat

Download on the App Store